カタログに戻る

STARLINK-35173

運用中通信VLEO
NORAD 65744·PAYLOAD·🇺🇸 United States

打ち上げ Sep 25, 2025 から Cape Canaveral Space Force Station

Loading…

次のパス (今後24時間)

TLE

最新Source: CelesTrak SupGP

元期: Sep 15, 2026, 02:59 UTC

1 65744C 25216L   26258.12479167 -.00034906  00000+0 -10314-2 0  2584
2 65744  53.1577 170.6169 0001340  86.8090 155.7795 15.34404559    15

AllMySatでSTARLINK-35173をリアルタイム追跡

Download on the App Store